{"discovery":{"ref":"20010309/Numbers.arc","site":null,"who":"LINEAR","location":"Socorro","date":"1997-Nov-29","name":null,"cref":null,"discovery":"Discovered 1997-11-29 by LINEAR at Socorro","citation":null},"signature":{"source":"NASA/JPL Small-Body Database (SBDB) API","version":"1.3"},"object":{"prefix":null,"neo":false,"orbit_class":{"name":"Main-belt Asteroid","code":"MBA"},"fullname":"22507 (1997 WA31)","spkid":"20022507","kind":"an","pha":false,"orbit_id":"47","des":"22507"},"orbit":{"producer":"Otto Matic","source":"JPL","last_obs":"2026-04-14","t_jup":"3.485","first_obs":"1996-06-14","model_pars":[],"sb_used":"SB441-N16","moid_jup":"2.31","soln_date":"2026-06-05 18:48:02","pe_used":"DE441","orbit_id":"47","data_arc":"10896","two_body":null,"n_del_obs_used":null,"n_obs_used":2548,"rms":"0.57","comment":null,"not_valid_before":null,"not_valid_after":null,"n_dop_obs_used":null,"cov_epoch":"2458328.5","epoch":"2461200.5","equinox":"J2000","condition_code":"0","moid":"0.989","elements":[{"title":"eccentricity","label":"e","name":"e","value":"0.175","units":null,"sigma":"1.5e-09"},{"sigma":"4.8e-10","name":"a","title":"semi-major axis","label":"a","units":"au","value":"2.43"},{"sigma":"3.4e-09","units":"au","value":"2","title":"perihelion distance","name":"q","label":"q"},{"units":"deg","value":"3.43","label":"i","title":"inclination; angle with respect to x-y ecliptic plane","name":"i","sigma":"3.6e-08"},{"sigma":"4.5e-07","title":"longitude of the ascending node","name":"om","label":"node","value":"71.5","units":"deg"},{"name":"w","title":"argument of perihelion","label":"peri","units":"deg","value":"218","sigma":"4.9e-07"},{"sigma":"3.5e-07","title":"mean anomaly","name":"ma","label":"M","units":"deg","value":"301"},{"sigma":"1.4e-06","units":"TDB","value":"2461428.551","title":"time of perihelion passage","label":"tp","name":"tp"},{"value":"1380","units":"d","label":"period","title":"sidereal orbital period","name":"per","sigma":"4.1e-07"},{"title":"mean motion","label":"n","name":"n","value":"0.26","units":"deg/d","sigma":"7.7e-11"},{"sigma":"5.6e-10","units":"au","value":"2.85","title":"aphelion distance","name":"ad","label":"Q"}]}}
